Location: Bastelaar
(51.0950°N, 3.8602°E)
Time: 17:22:25
(UTC+00:00)

BlueWalker 3 - Pass Details

Date: 18 November 2025
Orbit: 455 x 462 km, 53.2° (Epoch: 09 December)

Event Time Altitude Azimuth Distance (km) Brightness Sun altitude
Rises 18:12:43 0° 201° (SSW) 2,477 5.8 -21.6°
Reaches altitude 10° 18:15:18 10° 183° (S) 1,608 4.6 -22.0°
Enters shadow 18:15:40 12° 178° (S) 1,507 4.4 -22.1°
